CW6086 Weather Reports


time (UTC)temp
C
wind
direction
speed
KPH
gust
KPH
rain 1hr
cm
rain 24hr
cm
rain mn
cm
humidity
%
barometer
mb
20260906230110 43 0 0.0 0.0 0.00 0.00 0.00 33 1012.5
20260906224612 44 0 0.0 0.0 0.00 0.00 0.00 32 1012.5
20260906223103 45 0 0.0 0.0 0.00 0.00 0.00 32 1012.7
20260906221601 45 0 0.0 0.0 0.00 0.00 0.00 31 1012.8
20260906220136 45 0 0.0 0.0 0.00 0.00 0.00 32 1012.7
20260906214602 46 0 0.0 0.0 0.00 0.00 0.00 32 1012.6
20260906213111 46 0 0.0 0.0 0.00 0.00 0.00 33 1012.8
20260906211610 46 0 0.0 0.0 0.00 0.00 0.00 33 1013.2
20260906210114 45 0 0.0 0.0 0.00 0.00 0.00 33 1013.3
20260906204601 45 0 0.0 0.0 0.00 0.00 0.00 34 1013.5
20260906203107 45 0 0.0 0.0 0.00 0.00 0.00 33 1013.6
20260906201606 45 0 0.0 0.0 0.00 0.00 0.00 34 1013.9
20260906200105 44 0 0.0 0.0 0.00 0.00 0.00 36 1014.0
20260906194630 44 0 0.0 0.0 0.00 0.00 0.00 35 1014.1
20260906193107 43 0 0.0 0.0 0.00 0.00 0.00 37 1014.2
20260906191609 42 0 0.0 0.0 0.00 0.00 0.00 40 1014.5
20260906184611 38 0 0.0 0.0 0.00 0.00 0.00 49 1015.0
20260906183105 36 0 0.0 0.0 0.00 0.00 0.00 52 1014.9
20260906181603 35 0 0.0 0.0 0.00 0.00 0.00 54 1015.1
20260906180107 34 0 0.0 0.0 0.00 0.00 0.00 55 1015.3
20260906174605 33 0 0.0 0.0 0.00 0.00 0.00 57 1015.6
20260906173103 33 0 0.0 0.0 0.00 0.00 0.00 58 1015.8
20260906171610 32 0 0.0 0.0 0.00 0.00 0.00 60 1016.1
20260906170106 32 0 0.0 0.0 0.00 0.00 0.00 61 1016.2
20260906164604 31 0 0.0 0.0 0.00 0.00 0.00 63 1016.2
20260906163110 31 0 0.0 0.0 0.00 0.00 0.00 66 1016.1
20260906161607 30 0 0.0 0.0 0.00 0.00 0.00 69 1016.1
20260906160105 29 0 0.0 0.0 0.00 0.00 0.00 72 1016.2
20260906154607 29 0 0.0 0.0 0.00 0.00 0.00 77 1016.1
20260906153101 28 0 0.0 0.0 0.00 0.00 0.00 81 1016.2
20260906151600 28 0 0.0 0.0 0.00 0.00 0.00 83 1015.9
20260906150109 28 0 0.0 0.0 0.00 0.00 0.00 85 1015.8
20260906144622 27 0 0.0 0.0 0.00 0.00 0.00 86 1015.9
20260906143103 27 0 0.0 0.0 0.00 0.00 0.00 86 1016.0
20260906141620 27 0 0.0 0.0 0.00 0.00 0.00 86 1016.0
20260906140110 26 0 0.0 0.0 0.00 0.00 0.00 86 1015.9
20260906134606 26 0 0.0 0.0 0.00 0.00 0.00 86 1015.8
20260906133103 -17 0 0.0 0.0 0.00 0.00 0.00 1015.9
20260906131559 -17 0 0.0 0.0 0.00 0.00 0.00 1015.9
20260906130104 -17 0 0.0 0.0 0.00 0.00 0.00 1015.7
20260906124601 -17 0 0.0 0.0 0.00 0.00 0.00 1015.5
20260906123105 -17 0 0.0 0.0 0.00 0.00 0.00 1015.5
20260906121604 -17 0 0.0 0.0 0.00 0.00 0.00 1015.3
20260906120107 26 0 0.0 0.0 0.00 0.00 0.00 83 1015.2
20260906114606 26 0 0.0 0.0 0.00 0.00 0.00 83 1015.0
20260906113105 26 0 0.0 0.0 0.00 0.00 0.00 82 1015.0
20260906111604 26 0 0.0 0.0 0.00 0.00 0.00 82 1014.9
20260906110104 26 0 0.0 0.0 0.00 0.00 0.00 81 1014.7
20260906104624 26 0 0.0 0.0 0.00 0.00 0.00 81 1014.6
20260906103101 26 0 0.0 0.0 0.00 0.00 0.00 81 1014.5
20260906101603 27 0 0.0 0.0 0.00 0.00 0.00 80 1014.5
20260906094643 27 0 0.0 0.0 0.00 0.00 0.00 78 1014.3
20260906093108 27 0 0.0 0.0 0.00 0.00 0.00 77 1014.0
20260906091619 27 0 0.0 0.0 0.00 0.00 0.00 76 1014.0
20260906090105 28 0 0.0 0.0 0.00 0.00 0.00 75 1013.9
20260906084607 28 0 0.0 0.0 0.00 0.00 0.00 75 1013.8
20260906083105 28 0 0.0 0.0 0.00 0.00 0.00 74 1013.8
20260906081605 28 0 0.0 0.0 0.00 0.00 0.00 73 1013.7
20260906080334 28 0 0.0 0.0 0.00 0.00 0.00 72 1013.7
20260906074559 28 0 0.0 0.0 0.00 0.00 0.00 72 1013.9
20260906073100 28 0 0.0 0.0 0.00 0.00 0.00 71 1013.8
20260906071606 28 0 0.0 0.0 0.00 0.00 0.00 71 1013.8
20260906070104 29 0 0.0 0.0 0.00 0.00 0.00 70 1014.2
20260906064602 29 0 0.0 0.0 0.00 0.00 0.00 69 1014.2
20260906063100 29 0 0.0 0.0 0.00 0.00 0.00 68 1014.2
20260906061606 29 0 0.0 0.0 0.00 0.00 0.00 68 1014.1
20260906060111 30 0 0.0 0.0 0.00 0.00 0.00 68 1014.3
20260906054604 30 0 0.0 0.0 0.00 0.00 0.00 66 1014.1
20260906053107 30 0 0.0 0.0 0.00 0.00 0.00 66 1014.1
20260906051605 30 0 0.0 0.0 0.00 0.00 0.00 66 1014.0
20260906050133 30 0 0.0 0.0 0.00 0.00 0.00 66 1014.0
20260906044606 30 0 0.0 0.0 0.00 0.00 0.00 65 1014.0
20260906043105 30 0 0.0 0.0 0.00 0.00 0.00 65 1014.2
20260906041605 31 0 0.0 0.0 0.00 0.00 0.00 64 1014.2
20260906040139 31 0 0.0 0.0 0.00 0.00 0.00 63 1014.1
20260906034607 31 0 0.0 0.0 0.00 0.00 0.00 63 1014.3
20260906033101 31 0 0.0 0.0 0.00 0.00 0.00 62 1014.0
20260906031605 31 0 0.0 0.0 0.00 0.00 0.00 61 1014.4
20260906030111 32 0 0.0 0.0 0.00 0.00 0.00 61 1014.4
20260906024608 32 0 0.0 0.0 0.00 0.00 0.00 59 1014.1
20260906023104 32 0 0.0 0.0 0.00 0.00 0.00 57 1013.9
20260906021607 33 0 0.0 0.0 0.00 0.00 0.00 56 1013.7
20260906020107 33 0 0.0 0.0 0.00 0.00 0.00 54 1013.6
20260906014603 34 0 0.0 0.0 0.00 0.00 0.00 53 1013.4
20260906013103 35 0 0.0 0.0 0.00 0.00 0.00 51 1013.3
20260906011604 35 0 0.0 0.0 0.00 0.00 0.00 49 1012.8
20260906010108 36 0 0.0 0.0 0.00 0.00 0.00 48 1012.7
20260906004606 36 0 0.0 0.0 0.00 0.00 0.00 45 1012.3
20260906003105 37 0 0.0 0.0 0.00 0.00 0.00 44 1012.3
20260906001615 38 0 0.0 0.0 0.00 0.00 0.00 42 1012.4
20260906000108 38 0 0.0 0.0 0.00 0.00 0.00 41 1012.3
20260905234603 39 0 0.0 0.0 0.00 0.00 0.00 39 1012.2
20260905233112 41 0 0.0 0.0 0.00 0.00 0.00 38 1012.1
20260905231607 42 0 0.0 0.0 0.00 0.00 0.00 35 1012.3